Skip Page Navigation
NASA JPL Caltech
NASA Logo - Jet Propulsion Laboratory + View the NASA Portal
+ Center for Near-Earth Object Studies
JPL Home Earth Solar System Stars & Galaxies Technology
JPL Solar System Dynamics
BODIES ORBITS EPHEMERIDES TOOLS PHYSICAL DATA DISCOVERY FAQ SITE MAP
IMPORTANT: The SSD Announcement email list is now available. Major changes are coming in the near future, including possible hostname and/or URL changes. To be notified of such changes, subscribe to this email list.

Please visit this page for more details.


JPL Small-Body Database Browser
Search: [ help ]  
1130 Skuld (1929 RC)
Classification: Main-belt Asteroid          SPK-ID: 2001130
Ephemeris | Orbit Diagram | Orbital Elements | Mission Design | Physical Parameters | Discovery Circumstances ]

[ hide orbit diagram ]

For accurate long-term ephemerides, please instead use our Horizons system.This orbit viewer was implemented using two-body methods, and hence should not be used for determining accurate long-term trajectories (over several years or decades) or planetary encounter circumstances.


[ revert to old Java-based viewer ]

Orbital Elements at Epoch 2458600.5 (2019-Apr-27.0) TDB
Reference: JPL 36 (heliocentric ecliptic J2000)
 Element Value Uncertainty (1-sigma)   Units 
e .1975034668530699 2.8938e-08  
a 2.228667978247156 4.7796e-09 au
q 1.788498326078921 6.4101e-08 au
i 2.167971383293858 3.6338e-06 deg
node 216.1273262782622 8.3712e-05 deg
peri 113.7396249661887 8.4194e-05 deg
M 351.1195990108734 9.2952e-06 deg
tp 2458630.477579425132
(2019-May-26.97757943)
3.1414e-05 TDB
period 1215.252397528177
3.33
3.9094e-06
1.07e-08
d
yr
n .2962347580899572 9.5296e-10 deg/d
Q 2.668837630415392 5.7236e-09 au
  Orbit Determination Parameters
   # obs. used (total)      2859  
   data-arc span      41290 days (113.05 yr)  
   first obs. used      1906-11-11  
   last obs. used      2019-11-28  
   planetary ephem.      DE431  
   SB-pert. ephem.      SB431-N16  
   condition code      0  
   norm. resid. RMS      .43649  
   source      ORB  
   producer      Otto Matic  
   solution date      2019-Dec-03 20:17:37  

Additional Information
 Earth MOID = .778036 au 
 Jupiter MOID = 2.68148 au 
 T_jup = 3.617 
[ show covariance matrix ]

Ephemeris | Orbit Diagram | Orbital Elements | Mission Design | Physical Parameters | Discovery Circumstances ]

Physical Parameter Table
Parameter Symbol Value Units Sigma Reference Notes
absolute magnitude H 12.0   n/a MPO279525  
diameter diameter 10.125 km 0.092 urn:nasa:pds:neowise_diameters_albedos::2.0[mainbelt] (http://adsabs.harvard.edu/abs/2014ApJ...791..121M)  
rotation period rot_per 4.810 h n/a LCDB (Rev. 2019-January); Warner et al., 2009 Published Reference List:
[Behrend, R. (2004) Observatoire de Geneve web site, http://obswww.unige.ch/~behrend/page_cou.html]
[Buchheim, R.K. (2010) Minor Planet Bull. 37, 41-42.]
[Robinson, L. (2011) http://btboar.tripod.com/lightcurves/]
[Kryszczynska, A.; Colas, F.; Polinska, M.; Hirsch, R.; et al. (2012) Astron. Astrophys. 546, A72.]
[Hanus, J.; Durech, J.; Broz, M.; Marciniak, A.; et al. (2013) Astron. Astrophys. 551, A67.]
[Behrend, R. (2017) Observatoire de Geneve web site, http://obswww.unige.ch/~behrend/page_cou.html]
geometric albedo albedo 0.302   0.031 urn:nasa:pds:neowise_diameters_albedos::2.0[mainbelt] (http://adsabs.harvard.edu/abs/2012ApJ...759L...8M)  

1130 Skuld (1929 RC)          Discovered 1929-Sep-02 by Reinmuth, K. at Heidelberg
Reference: DISCOVERY.DBLast Updated: 2003-08-29

Alternate Designations
 1929 RC = 1928 FJ = 1949 UD = 1962 LA = A906 VC 
Ephemeris | Orbit Diagram | Orbital Elements | Mission Design | Physical Parameters | Discovery Circumstances ]
ABOUT SSD CREDITS/AWARDS PRIVACY/COPYRIGHT GLOSSARY LINKS
FirstGov 2019-Dec-10 08:32 UT
(server date/time)  
NASA Home Page
Site Manager:   Ryan S. Park
Webmaster  Alan B. Chamberlin